Home > Weather > Independence > Past weeks

Flag for USA Past Weather in Independence, Missouri, USA — Yesterday and Last 2 Weeks

Now
85 °F

Sunny.


Feels Like: 91 °F
Forecast: 73 / 87 °F
Wind: 5 mph from East

Location: Lee's Summit Municipal Airport

Current Time: Aug 28, 2016 at 7:34:37 PM

Latest Report: Aug 28, 2016 at 6:53 PM


Visibility: 10 mi

Pressure: 30.05 "Hg

Humidity: 65%

Dew Point: 72 °F

Location of IndependenceLocation

Past Weather in Independence — Graph

°F

Independence Temperature Yesterday

Maximum temperature yesterday: 87 °F (at 4:53 PM)
Minimum temperature yesterday: 68 °F (at 12:53 AM)
Average temperature yesterday: 77 °F

High & Low Weather Summary for the Past Weeks

 TemperatureHumidityPressure
High90 °F (Aug 17, 1:53 PM)100% (Aug 25, 5:53 AM)30.15 "Hg (Aug 25, 5:53 AM)
Low57 °F (Aug 21, 4:53 AM)32% (Aug 21, 4:53 PM)29.74 "Hg (Aug 19, 7:53 PM)
Average76 °F74%30.01 "Hg
* Reported Aug 13 5:53 PM — Aug 28 5:53 PM, Independence, Weather by CustomWeather, © 2016

Note: Actual official high and low records may vary slightly from our data, if they occured in-between our weather recording intervals... More about our weather records

Advertising

Independence Weather History for the Previous 24 Hours

Scroll right to see more
 ConditionsComfort  
Time TempWeatherWind HumidityBarometerVisibility
5:53 PM
Sun, Aug 28
88 °FSunny.5 mph57%30.04 "Hg10 mi
4:53 PM88 °FPassing clouds.7 mph57%30.05 "Hg10 mi
3:53 PM88 °FPassing clouds.7 mph57%30.05 "Hg10 mi
2:53 PM86 °FPassing clouds.5 mph63%30.07 "Hg10 mi
1:53 PM86 °FBroken clouds.6 mph61%30.09 "Hg10 mi
12:53 PM86 °FPassing clouds.8 mph61%30.11 "Hg10 mi
11:53 AM85 °FSunny.7 mph61%30.12 "Hg10 mi
10:53 AM83 °FSunny.5 mph70%30.12 "Hg10 mi
9:53 AM81 °FSunny.7 mph72%30.12 "Hg10 mi
8:53 AM78 °FSunny.6 mph79%30.11 "Hg10 mi
7:53 AM75 °FSunny.3 mph85%30.09 "Hg10 mi
6:53 AM73 °FClear.3 mph90%30.09 "Hg10 mi
5:53 AM73 °FClear.No wind90%30.07 "Hg10 mi
4:53 AM73 °FClear.5 mph90%30.05 "Hg10 mi
3:53 AM74 °FClear.6 mph88%30.05 "Hg10 mi
2:53 AM75 °FClear.5 mph85%30.05 "Hg10 mi
1:53 AM76 °FClear.6 mph82%30.05 "Hg10 mi
12:53 AM77 °FClear.8 mph82%30.05 "Hg10 mi
11:53 PM
Sat, Aug 27
77 °FClear.5 mph85%30.05 "Hg10 mi
10:53 PM77 °FClear.3 mph85%30.04 "Hg10 mi
9:53 PM80 °FPassing clouds.5 mph76%30.02 "Hg10 mi
8:53 PM78 °FSunny.No wind84%30.00 "Hg10 mi
7:53 PM80 °FSunny.No wind74%29.98 "Hg10 mi
Weather by CustomWeather, © 2016

See weather overviewHow to use our weather pages